Location: Kalberh�ni
(46.4610°N, 7.2453°E)
Time: 08:08:46
(UTC+00:00)

Cosmos 1455 - Pass Details

Date: 24 October 2021
Orbit: 496 x 520 km, 82.5° (Epoch: 27 November)

Event Time Altitude Azimuth Distance (km) Brightness Sun altitude
Rises 05:29:27 0° 353° (N) 2,604 5.6 -6.1°
Reaches altitude 10° 05:31:36 10° 357° (N) 1,712 4.7 -5.8°
Maximum altitude 05:35:19 64° 79° (E) 554 2.7 -5.1°
Drops below altitude 10° 05:39:00 10° 162° (SSE) 1,692 5.3 -4.5°
Sets 05:41:06 0° 166° (SSE) 2,569 6.1 -4.2°
